Retour au catalogue

STARLINK-37323

ActifCommunicationsVLEO
NORAD 69516·PAYLOAD·🇺🇸 United States

Lancé Jun 12, 2026 depuis Cape Canaveral Space Force Station

Loading…

Prochains Passages (prochaines 24 heures)

TLE

FraisSource: CelesTrak SupGP

Époque: Sep 15, 2026, 04:09 UTC

1 69516C 26133J   26258.17340278 -.00034619  00000+0 -10232-2 0  2589
2 69516  53.1562 254.6874 0001200  92.1225 322.5178 15.34398052    10

Suivez STARLINK-37323 en temps réel avec AllMySat

Download on the App Store